EZY547T EGBB-EGAA

Flight info

Callsign EZY547T
Flight time 0h 43m
Altitude 24000
Route LUVUM DCT NANTI L8 TADAL/N0386F280 UL8 BILVO UP6 TUPEM DCT REMSI DCT UVPOK M147 ROBOP M146 IPSET P6 BELZU
Aircraft A320/M-SDE2E3FGHIJ1RWXYZ/LB1

Departure

Time 2026-05-06 17:36
Airport Birmingham Airport (EGBB)

Arrival

Time 2026-05-06 18:19
Airport Belfast International Airport (EGAA)
Time Latitude Longitude Altitude Speed Heading
2026-05-06 16:39 52.45387 -1.73592 324 ft 0 kts 146°
2026-05-06 17:24 52.45389 -1.73594 323 ft 1 kts 146°
2026-05-06 17:24 52.45403 -1.73609 323 ft 3 kts 146°
2026-05-06 17:24 52.45419 -1.73626 320 ft 3 kts 160°
2026-05-06 17:24 52.45438 -1.73633 323 ft 3 kts 186°
2026-05-06 17:25 52.45457 -1.73625 321 ft 3 kts 221°
2026-05-06 17:25 52.45464 -1.73614 321 ft 0 kts 236°
2026-05-06 17:25 52.45455 -1.73635 321 ft 3 kts 236°
2026-05-06 17:25 52.45450 -1.73646 322 ft 0 kts 236°
2026-05-06 17:31 52.45450 -1.73647 322 ft 1 kts 236°
2026-05-06 17:31 52.45433 -1.73686 323 ft 7 kts 234°
2026-05-06 17:31 52.45395 -1.73778 323 ft 12 kts 236°
2026-05-06 17:31 52.45352 -1.73883 323 ft 11 kts 236°
2026-05-06 17:32 52.45316 -1.73966 323 ft 6 kts 231°
2026-05-06 17:32 52.45313 -1.74042 323 ft 11 kts 288°
2026-05-06 17:32 52.45298 -1.74142 322 ft 7 kts 207°
2026-05-06 17:32 52.45251 -1.74125 323 ft 8 kts 151°
2026-05-06 17:33 52.45187 -1.74056 323 ft 12 kts 147°
2026-05-06 17:33 52.45110 -1.73969 323 ft 15 kts 145°
2026-05-06 17:33 52.45017 -1.73865 323 ft 18 kts 146°
2026-05-06 17:33 52.44908 -1.73744 323 ft 17 kts 147°
2026-05-06 17:34 52.44822 -1.73686 323 ft 11 kts 189°
2026-05-06 17:34 52.44748 -1.73724 322 ft 12 kts 207°
2026-05-06 17:34 52.44694 -1.73837 326 ft 12 kts 236°
2026-05-06 17:34 52.44654 -1.73958 326 ft 13 kts 264°
2026-05-06 17:35 52.44701 -1.74044 325 ft 7 kts 327°
2026-05-06 17:35 52.44706 -1.74049 325 ft 0 kts 327°
2026-05-06 17:35 52.44709 -1.74051 324 ft 0 kts 327°
2026-05-06 17:36 52.45312 -1.74720 325 ft 120 kts 325°
2026-05-06 17:36 52.46148 -1.75658 430 ft 161 kts 329°
2026-05-06 17:36 52.47079 -1.76718 1141 ft 162 kts 328°
2026-05-06 17:36 52.48024 -1.77771 1883 ft 170 kts 328°
2026-05-06 17:37 52.49105 -1.78822 2277 ft 192 kts 342°
2026-05-06 17:37 52.50503 -1.79028 2690 ft 215 kts
2026-05-06 17:37 52.52068 -1.78682 3193 ft 239 kts
2026-05-06 17:37 52.53768 -1.78322 3960 ft 251 kts
2026-05-06 17:38 52.55515 -1.77962 4922 ft 256 kts
2026-05-06 17:38 52.57298 -1.77600 5870 ft 260 kts
2026-05-06 17:38 52.59107 -1.77237 6798 ft 264 kts
2026-05-06 17:38 52.60948 -1.76863 7686 ft 268 kts
2026-05-06 17:39 52.62812 -1.76480 8549 ft 273 kts
2026-05-06 17:39 52.64710 -1.76090 9439 ft 277 kts
2026-05-06 17:39 52.66646 -1.75694 10223 ft 285 kts
2026-05-06 17:39 52.68697 -1.75577 10521 ft 307 kts 353°
2026-05-06 17:40 52.70799 -1.76460 11044 ft 317 kts 334°
2026-05-06 17:40 52.72646 -1.78476 11783 ft 321 kts 321°
2026-05-06 17:40 52.74399 -1.80790 12585 ft 325 kts 320°
2026-05-06 17:40 52.76161 -1.83164 13378 ft 329 kts 320°
2026-05-06 17:41 52.77935 -1.85576 14121 ft 332 kts 320°
2026-05-06 17:41 52.79727 -1.88021 14812 ft 336 kts 319°
2026-05-06 17:41 52.81540 -1.90494 15500 ft 339 kts 319°
2026-05-06 17:41 52.83370 -1.92988 16185 ft 343 kts 319°
2026-05-06 17:42 52.85225 -1.95517 16859 ft 347 kts 319°
2026-05-06 17:42 52.87093 -1.98069 17532 ft 350 kts 319°
2026-05-06 17:42 52.88981 -2.00646 18197 ft 354 kts 319°
2026-05-06 17:42 52.90893 -2.03256 18788 ft 358 kts 319°
2026-05-06 17:43 52.92820 -2.05885 19369 ft 361 kts 319°
2026-05-06 17:43 52.94766 -2.08548 19952 ft 364 kts 319°
2026-05-06 17:43 52.96723 -2.11228 20534 ft 367 kts 319°
2026-05-06 17:43 52.98701 -2.13938 21133 ft 370 kts 319°
2026-05-06 17:44 53.00690 -2.16670 21718 ft 373 kts 319°
2026-05-06 17:44 53.02698 -2.19437 22296 ft 376 kts 319°
2026-05-06 17:44 53.04718 -2.22224 22861 ft 379 kts 319°
2026-05-06 17:44 53.06755 -2.25037 23447 ft 383 kts 319°
2026-05-06 17:45 53.08814 -2.27878 23881 ft 386 kts 319°
2026-05-06 17:45 53.10878 -2.30724 24001 ft 385 kts 319°
2026-05-06 17:45 53.12899 -2.33511 24024 ft 369 kts 319°
2026-05-06 17:45 53.14848 -2.36206 24029 ft 362 kts 319°
2026-05-06 17:46 53.16778 -2.38881 24028 ft 360 kts 319°
2026-05-06 17:46 53.18697 -2.41549 24025 ft 359 kts 319°
2026-05-06 17:46 53.20617 -2.44221 24027 ft 359 kts 319°
2026-05-06 17:46 53.22534 -2.46895 24027 ft 359 kts 319°
2026-05-06 17:47 53.24447 -2.49566 24027 ft 359 kts 319°
2026-05-06 17:47 53.26359 -2.52243 24026 ft 359 kts 319°
2026-05-06 17:47 53.28269 -2.54923 24028 ft 359 kts 319°
2026-05-06 17:47 53.30183 -2.57605 24031 ft 359 kts 319°
2026-05-06 17:48 53.32093 -2.60282 24034 ft 359 kts 319°
2026-05-06 17:48 53.33981 -2.62932 24033 ft 359 kts 319°
2026-05-06 17:48 53.35917 -2.65648 24033 ft 359 kts 319°
2026-05-06 17:48 53.37830 -2.68332 24037 ft 359 kts 319°
2026-05-06 17:49 53.39740 -2.71024 24037 ft 359 kts 319°
2026-05-06 17:49 53.41646 -2.73710 24039 ft 358 kts 319°
2026-05-06 17:49 53.43557 -2.76407 24038 ft 358 kts 319°
2026-05-06 17:49 53.45436 -2.79062 24043 ft 358 kts 319°
2026-05-06 17:50 53.47337 -2.81755 24041 ft 358 kts 319°
2026-05-06 17:50 53.49240 -2.84456 24043 ft 358 kts 318°
2026-05-06 17:50 53.51140 -2.87157 24039 ft 358 kts 318°
2026-05-06 17:50 53.53041 -2.89858 24040 ft 358 kts 318°
2026-05-06 17:51 53.54938 -2.92553 24037 ft 357 kts 319°
2026-05-06 17:51 53.56840 -2.95256 24038 ft 357 kts 318°
2026-05-06 17:51 53.58734 -2.97953 24037 ft 357 kts 318°
2026-05-06 17:51 53.60630 -3.00655 24039 ft 357 kts 319°
2026-05-06 17:52 53.62524 -3.03361 24039 ft 357 kts 319°
2026-05-06 17:52 53.64417 -3.06071 24038 ft 357 kts 318°
2026-05-06 17:52 53.66307 -3.08781 24036 ft 357 kts 318°
2026-05-06 17:52 53.68193 -3.11490 24038 ft 357 kts 318°
2026-05-06 17:53 53.70081 -3.14203 24035 ft 356 kts 318°
2026-05-06 17:53 53.71961 -3.16931 24038 ft 356 kts 315°
2026-05-06 17:53 53.73607 -3.20039 24031 ft 355 kts 305°
2026-05-06 17:53 53.74931 -3.23548 24031 ft 354 kts 301°
2026-05-06 17:54 53.76213 -3.27108 24027 ft 354 kts 301°
2026-05-06 17:54 53.77493 -3.30663 24023 ft 354 kts 301°
2026-05-06 17:54 53.78775 -3.34219 24020 ft 354 kts 301°
2026-05-06 17:54 53.80056 -3.37774 24019 ft 354 kts 301°
2026-05-06 17:55 53.81336 -3.41333 24019 ft 354 kts 301°
2026-05-06 17:55 53.82613 -3.44893 24015 ft 354 kts 301°
2026-05-06 17:55 53.83873 -3.48400 24014 ft 354 kts 301°
2026-05-06 17:55 53.85150 -3.51957 24007 ft 354 kts 301°
2026-05-06 17:56 53.86425 -3.55522 24011 ft 354 kts 301°
2026-05-06 17:56 53.87698 -3.59092 24015 ft 354 kts 301°
2026-05-06 17:56 53.88971 -3.62658 24012 ft 354 kts 301°
2026-05-06 17:56 53.90242 -3.66230 24009 ft 354 kts 301°
2026-05-06 17:57 53.91510 -3.69800 24009 ft 353 kts 301°
2026-05-06 17:57 53.92776 -3.73374 24005 ft 353 kts 301°
2026-05-06 17:57 53.94042 -3.76947 24008 ft 353 kts 301°
2026-05-06 17:57 53.95268 -3.80559 24007 ft 353 kts 295°
2026-05-06 17:58 53.96132 -3.84461 24004 ft 353 kts 285°
2026-05-06 17:58 53.96580 -3.88556 24005 ft 353 kts 279°
2026-05-06 17:58 53.96947 -3.92684 23998 ft 353 kts 279°
2026-05-06 17:58 53.97313 -3.96809 24009 ft 354 kts 279°
2026-05-06 17:59 53.97680 -4.00941 24007 ft 354 kts 279°
2026-05-06 17:59 53.98045 -4.05067 24009 ft 354 kts 279°
2026-05-06 17:59 53.98408 -4.09203 24011 ft 354 kts 279°
2026-05-06 17:59 53.98769 -4.13335 24015 ft 354 kts 279°
2026-05-06 18:00 53.99160 -4.17464 24013 ft 354 kts 283°
2026-05-06 18:00 53.99612 -4.20117 24007 ft 353 kts 291°
2026-05-06 18:00 54.01122 -4.25052 24006 ft 353 kts 305°
2026-05-06 18:00 54.02545 -4.28456 24010 ft 353 kts 305°
2026-05-06 18:01 54.03964 -4.31863 24018 ft 353 kts 305°
2026-05-06 18:01 54.05387 -4.35305 24032 ft 362 kts 304°
2026-05-06 18:01 54.06835 -4.38824 23805 ft 363 kts 304°
2026-05-06 18:01 54.08284 -4.42341 23218 ft 362 kts 304°
2026-05-06 18:02 54.09242 -4.44663 22870 ft 361 kts 304°
2026-05-06 18:02 54.10679 -4.48148 22357 ft 358 kts 304°
2026-05-06 18:02 54.12580 -4.52766 21721 ft 354 kts 304°
2026-05-06 18:02 54.13987 -4.56195 21251 ft 352 kts 304°
2026-05-06 18:03 54.14912 -4.58454 20947 ft 350 kts 303°
2026-05-06 18:03 54.16298 -4.61848 20495 ft 347 kts 303°
2026-05-06 18:03 54.17670 -4.65213 20044 ft 344 kts 303°
2026-05-06 18:03 54.19479 -4.69635 19467 ft 341 kts 303°
2026-05-06 18:04 54.20395 -4.71871 19176 ft 340 kts 303°
2026-05-06 18:04 54.21743 -4.75169 18752 ft 337 kts 303°
2026-05-06 18:04 54.23078 -4.78445 18329 ft 335 kts 302°
2026-05-06 18:04 54.24404 -4.81709 17860 ft 333 kts 302°
2026-05-06 18:05 54.25721 -4.84950 17395 ft 331 kts 303°
2026-05-06 18:05 54.27026 -4.88165 16945 ft 328 kts 302°
2026-05-06 18:05 54.28322 -4.91365 16508 ft 326 kts 302°
2026-05-06 18:05 54.29609 -4.94551 16082 ft 324 kts 302°
2026-05-06 18:06 54.30888 -4.97713 15657 ft 322 kts 303°
2026-05-06 18:06 54.32162 -5.00862 15243 ft 320 kts 303°
2026-05-06 18:06 54.33427 -5.03987 14843 ft 318 kts 303°
2026-05-06 18:06 54.34681 -5.07093 14470 ft 315 kts 303°
2026-05-06 18:07 54.35912 -5.10146 14001 ft 316 kts 303°
2026-05-06 18:07 54.37152 -5.13232 13589 ft 314 kts 302°
2026-05-06 18:07 54.38384 -5.16304 13192 ft 311 kts 303°
2026-05-06 18:07 54.39607 -5.19358 12742 ft 309 kts 303°
2026-05-06 18:08 54.40832 -5.22417 12354 ft 306 kts 302°
2026-05-06 18:08 54.42014 -5.25371 11981 ft 302 kts 302°
2026-05-06 18:08 54.43216 -5.28379 11597 ft 300 kts 302°
2026-05-06 18:08 54.44372 -5.31278 11223 ft 297 kts 302°
2026-05-06 18:09 54.45605 -5.34109 10835 ft 296 kts 310°
2026-05-06 18:09 54.47030 -5.36651 10452 ft 294 kts 311°
2026-05-06 18:09 54.48448 -5.39177 10072 ft 292 kts 311°
2026-05-06 18:09 54.49865 -5.41709 9827 ft 285 kts 311°
2026-05-06 18:10 54.51206 -5.44113 9490 ft 281 kts 311°
2026-05-06 18:10 54.52448 -5.46697 9252 ft 271 kts 304°
2026-05-06 18:10 54.53541 -5.49280 9117 ft 261 kts 304°
2026-05-06 18:10 54.54597 -5.51759 8917 ft 254 kts 304°
2026-05-06 18:11 54.55621 -5.54165 8602 ft 251 kts 304°
2026-05-06 18:11 54.56650 -5.56586 8257 ft 250 kts 304°
2026-05-06 18:11 54.57672 -5.59000 7878 ft 249 kts 304°
2026-05-06 18:11 54.58691 -5.61412 7521 ft 248 kts 304°
2026-05-06 18:12 54.59705 -5.63814 7155 ft 248 kts 303°
2026-05-06 18:12 54.60696 -5.66157 6971 ft 240 kts 303°
2026-05-06 18:12 54.61669 -5.68460 6679 ft 237 kts 304°
2026-05-06 18:12 54.62634 -5.70751 6326 ft 236 kts 303°
2026-05-06 18:13 54.63598 -5.73042 5935 ft 235 kts 304°
2026-05-06 18:13 54.64558 -5.75327 5554 ft 235 kts 303°
2026-05-06 18:13 54.65513 -5.77600 5195 ft 233 kts 303°
2026-05-06 18:13 54.66485 -5.79917 4544 ft 245 kts 303°
2026-05-06 18:14 54.67502 -5.82341 3997 ft 250 kts 303°
2026-05-06 18:14 54.68514 -5.84754 3672 ft 245 kts 303°
2026-05-06 18:14 54.69502 -5.87108 3413 ft 239 kts 303°
2026-05-06 18:14 54.70468 -5.89415 3162 ft 235 kts 303°
2026-05-06 18:15 54.71410 -5.91669 3014 ft 226 kts 302°
2026-05-06 18:15 54.72187 -5.93903 2994 ft 208 kts 284°
2026-05-06 18:15 54.72348 -5.96269 3005 ft 193 kts 258°
2026-05-06 18:15 54.71951 -5.98416 2956 ft 185 kts 242°
2026-05-06 18:16 54.71420 -6.00402 2779 ft 179 kts 242°
2026-05-06 18:16 54.70903 -6.02334 2506 ft 175 kts 242°
2026-05-06 18:16 54.70398 -6.04225 2275 ft 171 kts 241°
2026-05-06 18:16 54.69905 -6.06069 2047 ft 167 kts 240°
2026-05-06 18:17 54.69433 -6.07839 1803 ft 156 kts 241°
2026-05-06 18:17 54.68997 -6.09474 1623 ft 143 kts 239°
2026-05-06 18:17 54.68584 -6.11016 1425 ft 139 kts 239°
2026-05-06 18:17 54.68181 -6.12514 1223 ft 137 kts 239°
2026-05-06 18:18 54.67784 -6.13984 966 ft 138 kts 241°
2026-05-06 18:18 54.67385 -6.15506 812 ft 138 kts 243°
2026-05-06 18:18 54.66997 -6.17026 658 ft 138 kts 240°
2026-05-06 18:18 54.66588 -6.18492 471 ft 137 kts 238°
2026-05-06 18:19 54.66182 -6.20001 292 ft 137 kts 239°
2026-05-06 18:19 54.65828 -6.21276 272 ft 95 kts 244°
2026-05-06 18:19 54.65624 -6.22041 272 ft 46 kts 245°
2026-05-06 18:19 54.65530 -6.22396 276 ft 30 kts 245°
2026-05-06 18:20 54.65472 -6.22665 272 ft 14 kts 289°
2026-05-06 18:20 54.65537 -6.22722 276 ft 10 kts 341°
2026-05-06 18:20 54.65601 -6.22756 272 ft 9 kts 342°
2026-05-06 18:20 54.65666 -6.22791 272 ft 13 kts 345°
2026-05-06 18:21 54.65736 -6.22736 272 ft 12 kts 66°
2026-05-06 18:21 54.65749 -6.22558 272 ft 18 kts 85°
2026-05-06 18:21 54.65766 -6.22310 274 ft 22 kts 83°
2026-05-06 18:21 54.65801 -6.22071 272 ft 21 kts 66°
2026-05-06 18:22 54.65864 -6.21834 272 ft 23 kts 65°
2026-05-06 18:22 54.65934 -6.21574 274 ft 25 kts 65°
2026-05-06 18:22 54.66003 -6.21319 272 ft 20 kts 65°
2026-05-06 18:22 54.66056 -6.21213 272 ft 10 kts
2026-05-06 18:23 54.66113 -6.21253 275 ft 8 kts 331°
2026-05-06 18:23 54.66122 -6.21309 272 ft 4 kts 253°
2026-05-06 18:23 54.66112 -6.21341 272 ft 2 kts 245°
2026-05-06 18:23 54.66109 -6.21355 275 ft 1 kts 245°
2026-05-06 18:24 54.66109 -6.21356 275 ft 0 kts 245°
2026-05-06 18:44 54.66109 -6.21357 272 ft 0 kts 245°